Bydgoszcz Ignacy Jan Pade, Poland

8:44 PM CET on November 19, 2017 (GMT +0100)
Szwederowo

Weather History for EPBY - November, 2017

Change the Weather History Date:

Wednesday, November 15, 2017

  Actual Average Record
Temperature  
Mean Temperature 42 °F -  
Max Temperature 44 °F - - ()
Min Temperature 41 °F - - ()
Degree Days  
Heating Degree Days 22    
Moisture  
Dew Point 41 °F    
Average Humidity 92    
Maximum Humidity 100    
Minimum Humidity 81    
Precipitation  
Precipitation 0.00 in - - ()
Sea Level Pressure  
Sea Level Pressure 30.21 in    
Wind  
Wind Speed 11 mph ()    
Max Wind Speed 15 mph    
Max Gust Speed -    
Visibility 5.6 miles    
Events Fog , Rain    
T = Trace of Precipitation, MM = Missing Value Source: Averaged Metar Reports

Daily Weather History Graph

Daily Weather History Graph

Search for Another Location

Airport or City:

Trip Planner

Search our weather history database for the weather conditions in past years. The results will help you decide how hot, cold, wet, or windy it might be!

Date:

Astronomy

Nov. 15, 2017 Rise Set
Actual Time 7:12 AM CET 3:52 PM CET
Civil Twilight 6:33 AM CET 4:31 PM CET
Nautical Twilight 5:51 AM CET 5:13 PM CET
Astronomical Twilight 5:10 AM CET 5:54 PM CET
Moon 3:19 AM CET (11/15) 3:09 PM CET (11/15)
Length of Visible Light 9h 57m
Length of Day
8h 40m
Waning Crescent, 9% of the Moon is Illuminated
Nov 15
Waning Crescent
Nov 18
New
Nov 26
First Quarter
Dec 3
Full
Dec 10
Last Quarter

Hourly Weather History & Observations

Time (CET) Temp. Windchill Dew Point Humidity Pressure Visibility Wind Dir Wind Speed Gust Speed Precip Events Conditions
12:00 AM 41.0 °F 33.5 °F 39.2 °F 93% 30.12 in 6.2 mi WSW 13.8 mph - N/A   Overcast
12:30 AM 41.0 °F 33.5 °F 39.2 °F 93% 30.12 in 6.2 mi WSW 13.8 mph - N/A   Mostly Cloudy
1:00 AM 41.0 °F 33.5 °F 39.2 °F 93% 30.12 in 6.2 mi WSW 13.8 mph - N/A   Mostly Cloudy
1:30 AM 41.0 °F 33.1 °F 39.2 °F 93% 30.12 in 6.2 mi WSW 15.0 mph - N/A   Mostly Cloudy
2:00 AM 41.0 °F 33.1 °F 41.0 °F 100% 30.12 in 6.2 mi WSW 15.0 mph - N/A   Overcast
2:30 AM 42.8 °F 35.4 °F 41.0 °F 93% 30.15 in 6.2 mi WSW 15.0 mph - N/A   Overcast
3:00 AM 42.8 °F 36.2 °F 41.0 °F 93% 30.15 in 5.6 mi WSW 12.7 mph - N/A   Overcast
3:30 AM 42.8 °F 36.2 °F 41.0 °F 93% 30.15 in 5.6 mi WSW 12.7 mph - N/A   Overcast
4:30 AM 42.8 °F 36.6 °F 41.0 °F 93% 30.15 in 6.2 mi WSW 11.5 mph - N/A   Overcast
5:00 AM 42.8 °F 36.2 °F 41.0 °F 93% 30.15 in 6.2 mi WSW 12.7 mph - N/A   Overcast
6:00 AM 42.8 °F 35.8 °F 41.0 °F 93% 30.15 in 6.2 mi WSW 13.8 mph - N/A   Mostly Cloudy
6:30 AM 42.8 °F 36.2 °F 41.0 °F 93% 30.18 in 6.2 mi West 12.7 mph - N/A   Overcast
7:00 AM 42.8 °F 36.6 °F 41.0 °F 93% 30.18 in 6.2 mi West 11.5 mph - N/A   Overcast
7:30 AM 42.8 °F 37.0 °F 41.0 °F 93% 30.18 in 6.2 mi WSW 10.4 mph - N/A   Mostly Cloudy
8:30 AM 42.8 °F 37.0 °F 41.0 °F 93% 30.21 in 6.2 mi SW 10.4 mph - N/A   Overcast
9:00 AM 42.8 °F 36.2 °F 41.0 °F 93% 30.21 in 6.2 mi WSW 12.7 mph - N/A   Overcast
10:30 AM 44.6 °F 38.8 °F 41.0 °F 87% 30.24 in 6.2 mi West 11.5 mph - N/A   Overcast
11:00 AM 44.6 °F 38.8 °F 39.2 °F 81% 30.24 in 6.2 mi West 11.5 mph - N/A   Overcast
12:00 PM 44.6 °F 38.1 °F 41.0 °F 87% 30.24 in 6.2 mi WSW 13.8 mph - N/A   Overcast
12:30 PM 44.6 °F 38.8 °F 39.2 °F 81% 30.24 in 6.2 mi WSW 11.5 mph - N/A   Overcast
1:30 PM 44.6 °F 38.4 °F 39.2 °F 81% 30.24 in 6.2 mi WSW 12.7 mph - N/A   Overcast
2:00 PM 44.6 °F 38.8 °F 39.2 °F 81% 30.24 in 6.2 mi SW 11.5 mph - N/A   Mostly Cloudy
2:30 PM 44.6 °F 39.2 °F 39.2 °F 81% 30.24 in 6.2 mi WSW 10.4 mph - N/A   Overcast
3:00 PM 44.6 °F 39.2 °F 41.0 °F 87% 30.24 in 6.2 mi SW 10.4 mph - N/A   Overcast
3:30 PM 44.6 °F 39.7 °F 39.2 °F 81% 30.24 in 6.2 mi WSW 9.2 mph - N/A   Overcast
4:30 PM 42.8 °F 38.0 °F 41.0 °F 93% 30.24 in 6.2 mi WSW 8.1 mph - N/A   Overcast
5:00 PM 42.8 °F 38.6 °F 41.0 °F 93% 30.24 in 6.2 mi WSW 6.9 mph - N/A   Overcast
6:00 PM 44.6 °F 40.2 °F 41.0 °F 87% 30.24 in 5.6 mi SW 8.1 mph - N/A Rain Light Rain
7:00 PM 42.8 °F 38.0 °F 41.0 °F 93% 30.24 in 5.6 mi SW 8.1 mph - N/A   Overcast
7:30 PM 42.8 °F 38.0 °F 41.0 °F 93% 30.24 in 3.1 mi SW 8.1 mph - N/A   Overcast
8:00 PM 42.8 °F 38.0 °F 41.0 °F 93% 30.24 in 4.3 mi SW 8.1 mph - N/A   Overcast
8:30 PM 42.8 °F 38.0 °F 41.0 °F 93% 30.27 in - SW 8.1 mph - N/A   Light Drizzle
9:00 PM 42.8 °F 38.6 °F 42.8 °F 100% 30.27 in 2.8 mi SW 6.9 mph - N/A   Light Drizzle
9:30 PM 42.8 °F 38.6 °F 42.8 °F 100% 30.27 in 1.9 mi SW 6.9 mph - N/A   Overcast
10:00 PM 42.8 °F 39.3 °F 42.8 °F 100% 30.27 in 1.2 mi SW 5.8 mph - N/A   Overcast
11:00 PM 42.8 °F 39.3 °F 42.8 °F 100% 30.27 in - SW 5.8 mph - N/A Fog Fog
11:30 PM 42.8 °F 40.1 °F 42.8 °F 100% 30.27 in - SW 4.6 mph - N/A Fog Fog